Location: Hains Lake
(37.8540°N, 99.8578°W)
Time: 15:31:17
(UTC+00:00)

Vanguard 1 - Pass Details

Date: 09 December 2021
Orbit: 652 x 3830 km, 34.2° (Epoch: 22 January)

Event Time Altitude Azimuth Distance (km) Brightness Sun altitude
Exits shadow 11:32:38 30° 265° (W) 5,039 13.0 -25.1°
Maximum altitude 11:42:26 45° 219° (SW) 3,779 12.7 -23.2°
Drops below altitude 10° 11:55:41 10° 152° (SSE) 4,644 14.0 -20.7°
Sets 11:58:49 0° 145° (SE) 5,280 14.6 -20.1°
